THURAYA-3

Last updated on Tue Sep 22 2026 00:03:11 GMT+0000 (Coordinated Universal Time)

1 32404U 08001A 26264.50172407 .00000009 00000+0 00000+0 0 9995 2 32404 6.1508 35.8222 0002465 172.6825 36.2349 1.00271661 68459
UTC large
Height (km)
Speed (km/s)
/
Latitude / Longitude
Inclination (degrees)
Orbital Period (minutes)
Azimuth
Elevation
Range (km)
Doppler Factor

Next 0 passes for location: London (51.5072 / 0.1276)

No passes found over London.
THURAYA-3